User: anonymous   Login
Location: Bonnesvalyn
(49.1218°N, 3.3177°E)
Time: 20:01:50
(UTC+00:00)
Language:

FENGYUN 1C DEB - Orbit

View from above orbital plane
View from above orbital plane
View from above satellite
View from above satellite

Ground track
Ground track

The orbit data is extracted from the following two-line orbital elements,

1 31312U 99025BPQ 24057.93297938  .00001147  00000-0  80269-3 0  9994
2 31312  98.8126  60.0804 0062680 256.7181 133.6200 13.99455041862008
Epoch (UTC): 26 February 2024 22:23:29
Eccentricity: 0.0062680
inclination: 98.8126°
perigee height: 850 km
apogee height: 941 km
right ascension of ascending node: 60.0804°
argument of perigee: 256.7181°
revolutions per day: 13.99455041
mean anomaly at epoch: 133.6200°
orbit number at epoch: 86200

The dashed part of the orbit path shows where the satellite is in the earth's shadow,  

DLR